Location: Montamat
(43.4852°N, 0.8444°E)
Time: 08:39:47
(UTC+00:00)

Cosmos 2360 Rocket - Pass Details

Date: 14 May 2026
Orbit: 831 x 845 km, 71.0° (Epoch: 6 June)

Event Time Altitude Azimuth Distance (km) Brightness Sun altitude
Rises 22:01:58 0° 333° (NNW) 3,414 6.9 -22.7°
Reaches altitude 10° 22:04:26 10° 332° (NNW) 2,475 5.8 -22.9°
Maximum altitude 22:10:06 75° 248° (WSW) 876 2.2 -23.4°
Enters shadow 22:11:23 54° 180° (S) 1,022 2.2 -23.5°
